GW3042 Weather Reports


Display with metric or nautical units.
time (UTC)temp
F
wind
direction
speed
MPH
gust
MPH
rain 1hr
in
rain 24hr
in
rain mn
in
humidity
%
barometer
mb
20260507204529 55 123 0.0 0.0 0.00 0.13 0.09 82 1014.8
20260507203036 56 123 0.0 0.0 0.00 0.13 0.09 81 1014.7
20260507201506 56 123 0.0 0.0 0.00 0.13 0.09 80 1014.4
20260507194558 58 123 0.0 0.0 0.00 0.17 0.09 78 1014.0
20260507193038 58 123 0.0 0.0 0.00 0.17 0.09 77 1013.7
20260507191523 59 123 0.0 3.0 0.00 0.17 0.09 75 1013.5
20260507190014 60 47 0.0 7.0 0.00 0.17 0.09 72 1013.1
20260507184502 60 144 0.0 3.0 0.00 0.17 0.09 71 1012.8
20260507183053 62 146 1.0 3.0 0.00 0.17 0.09 70 1012.6
20260507181544 62 63 3.0 10.0 0.00 0.17 0.09 64 1012.3
20260507180029 62 67 2.0 6.0 0.00 0.17 0.09 66 1012.1
20260507174523 63 133 1.0 4.0 0.00 0.17 0.09 64 1011.7
20260507173011 65 52 0.0 3.0 0.00 0.17 0.09 61 1011.6
20260507171600 66 121 0.0 3.0 0.00 0.17 0.09 60 1011.5
20260507170047 68 121 0.0 3.0 0.00 0.18 0.09 56 1011.4
20260507164535 70 123 0.0 3.0 0.00 0.18 0.09 51 1011.2
20260507163026 69 124 0.0 4.0 0.00 0.18 0.09 51 1011.3
20260507161511 70 118 0.0 2.0 0.00 0.18 0.09 49 1011.4
20260507160105 70 96 1.0 4.0 0.00 0.23 0.09 51 1011.3
20260507154551 70 119 3.0 7.0 0.00 0.23 0.09 47 1011.5
20260507153041 69 118 1.0 6.0 0.00 0.23 0.09 51 1011.4
20260507151531 69 119 1.0 10.0 0.00 0.23 0.09 51 1011.6
20260507150027 70 179 3.0 8.0 0.00 0.31 0.09 49 1011.7
20260507144506 68 139 3.0 11.0 0.00 0.31 0.09 51 1011.8
20260507143103 68 156 3.0 10.0 0.00 0.31 0.09 50 1012.0
20260507141556 69 164 3.0 10.0 0.00 0.31 0.09 49 1012.4
20260507140037 69 198 1.0 4.0 0.00 0.43 0.09 53 1012.4
20260507134523 67 212 1.0 4.0 0.00 0.43 0.09 51 1012.5
20260507133017 67 241 2.0 6.0 0.00 0.43 0.09 54 1012.8
20260507131602 68 241 3.0 8.0 0.00 0.43 0.09 53 1012.8
20260507130059 69 238 0.0 2.0 0.00 0.47 0.09 55 1012.7
20260507124536 70 233 0.0 5.0 0.00 0.47 0.09 52 1012.5
20260507123015 71 102 2.0 6.0 0.00 0.47 0.09 50 1012.4
20260507121505 71 313 1.0 4.0 0.00 0.47 0.09 51 1012.3
20260507120056 69 113 0.0 6.0 0.00 0.47 0.09 57 1012.4
20260507114559 68 115 1.0 6.0 0.00 0.47 0.09 56 1012.7
20260507113037 69 36 1.0 5.0 0.00 0.47 0.09 58 1012.8
20260507111526 68 275 1.0 5.0 0.00 0.47 0.09 58 1013.1
20260507110014 68 19 1.0 5.0 0.00 0.47 0.09 60 1013.1
20260507104502 68 78 1.0 5.0 0.00 0.47 0.09 58 1013.3
20260507103055 67 37 2.0 6.0 0.00 0.47 0.09 58 1013.5
20260507101545 66 275 1.0 3.0 0.00 0.47 0.09 64 1013.7
20260507100032 64 233 0.0 2.0 0.00 0.48 0.09 66 1013.6
20260507094523 63 233 1.0 4.0 0.00 0.48 0.09 60 1013.9
20260507093009 64 234 0.0 3.0 0.00 0.48 0.09 66 1013.8
20260507091601 62 223 0.0 2.0 0.00 0.48 0.09 65 1013.9
20260507090047 61 223 0.0 2.0 0.00 0.49 0.09 71 1013.8
20260507084540 61 137 0.0 2.0 0.00 0.49 0.09 72 1013.9
20260507083030 60 44 0.0 3.0 0.00 0.49 0.09 77 1013.8
20260507081517 58 45 0.0 1.0 0.00 0.49 0.09 84 1014.0
20260507080001 57 45 0.0 3.0 0.00 0.50 0.09 90 1014.0
20260507074554 56 45 0.0 2.0 0.01 0.50 0.09 94 1014.1
20260507073046 54 45 0.0 1.0 0.01 0.50 0.09 96 1014.3
20260507071529 52 45 0.0 1.0 0.01 0.50 0.09 96 1014.3
20260507070027 51 45 0.0 0.0 0.01 0.53 0.09 96 1014.3
20260507064505 49 45 0.0 0.0 0.00 0.52 0.09 96 1014.4
20260507063100 48 45 0.0 0.0 0.00 0.52 0.09 95 1014.4
20260507061547 47 45 0.0 1.0 0.01 0.52 0.09 95 1014.4
20260507060036 46 45 0.0 1.0 0.01 0.56 0.09 95 1014.3
20260507054524 46 45 0.0 0.0 0.01 0.56 0.09 95 1014.3
20260507053013 46 45 0.0 0.0 0.01 0.56 0.09 95 1014.1
20260507051502 46 45 0.0 0.0 0.00 0.55 0.08 95 1013.9
20260507050053 46 45 0.0 0.0 0.01 0.69 0.08 95 1013.7
20260507044557 46 45 0.0 1.0 0.01 0.69 0.08 95 1013.6
20260507043033 46 45 0.0 1.0 0.01 0.69 0.08 95 1013.4
20260507041522 47 45 0.0 0.0 0.01 0.69 0.08 95 1013.3
20260507040011 47 45 0.0 0.0 0.00 0.92 0.07 95 1013.4
20260507034502 47 45 0.0 0.0 0.01 0.92 0.07 95 1013.3
20260507033105 48 45 0.0 0.0 0.01 0.92 0.07 95 1013.4
20260507031555 48 45 0.0 1.0 0.01 0.92 0.07 95 1013.4
20260507030033 49 45 0.0 1.0 0.02 1.07 0.07 95 1013.3
20260507024522 49 45 0.0 2.0 0.01 1.06 0.06 95 1013.4
20260507023011 49 40 0.0 0.0 0.01 1.06 0.06 94 1013.3
20260507021600 49 40 0.0 0.0 0.02 1.06 0.06 94 1013.3
20260507020057 49 40 0.0 0.0 0.01 1.12 0.06 95 1013.1
20260507014548 49 40 0.0 0.0 0.01 1.12 0.06 94 1012.9
20260507013034 50 40 0.0 0.0 0.02 1.12 0.06 94 1012.6
20260507011525 50 40 0.0 0.0 0.01 1.12 0.05 94 1012.8
20260507010003 50 40 0.0 0.0 0.02 1.12 0.05 94 1012.7
20260507004553 50 40 0.0 0.0 0.02 1.12 0.05 94 1012.7
20260507003039 51 40 0.0 0.0 0.01 1.12 0.04 94 1012.7
20260507001534 51 40 0.0 1.0 0.02 1.12 0.04 94 1012.8
20260507000017 51 40 0.0 1.0 0.02 1.12 0.03 94 1012.6
20260506234506 51 40 0.0 1.0 0.02 1.12 0.03 94 1012.7
20260506233059 51 40 0.0 0.0 0.02 1.12 0.03 94 1012.8
20260506231554 52 40 0.0 2.0 0.02 1.11 0.02 94 1012.9
20260506230037 52 38 0.0 1.0 0.02 1.10 0.02 94 1012.8
20260506224527 52 38 0.0 0.0 0.02 1.10 0.02 94 1012.9
20260506223018 52 38 0.0 0.0 0.02 1.09 0.01 94 1012.8
20260506221507 52 38 0.0 1.0 0.02 1.09 0.01 94 1012.7
20260506214548 52 38 0.0 1.0 0.02 1.10 1.08 93 1012.5
20260506213037 52 38 0.0 1.0 0.02 1.10 1.08 93 1012.3
20260506211523 52 38 0.0 1.0 0.02 1.09 1.07 93 1012.4
20260506210012 52 38 0.0 0.0 0.02 1.09 1.06 92 1012.6